Погода в Терновом

Россия / Волгоградская область     51°02′12″N   43°42′53″E
темп.,
°C
ветер,
м/с
пор.,
м/с
влажн.,
%
обл.,
%
осадки,
мм/ч
давл.,
гПа
погр.,
м
28 сентября, вт
вт2800:00+9ссз3786100 0.0 1016307
03:00+7с479296 0.0 1017230
06:00+8с368899 0.1 1019373
09:00+9ссв5677100 0.1 1020785
12:00+8всв5782100 0.1 1022645
15:00+6св4683100 0.3 1024538
18:00+7св3782100 0.0 1026642
21:00+7ссв477594 0.1 1027331
29 сентября, ср
ср2900:00+7ссв377095 0.0 1028282
03:00+3ссв37825 0.0 1029155
06:00+2ссв378545 0.0 1030162
09:00+7ссв576120 0.0 1030613
12:00+10св56445 0.0 10301471
15:00+11ссв453913 0.0 10291780
18:00+8ссв47535 0.0 1030122
21:00+5с47635 0.0 1031134
30 сентября, чт
чт3000:00+4ссв36705 0.0 103199
03:00+3с33755 0.0 103147
06:00+3с34787 0.0 103269
09:00+8ссв345868 0.0 1033434
12:00+11ссв33435 0.0 10321469
15:00+12ссв334065 0.0 10321725
18:00+8ссв33548 0.0 103225
21:00+7ссв33635 0.0 103333
1 октября, пт
пт100:00+6ссв336917 0.0 103431
03:00+7с116099 0.0 103411
06:00+8ссз2462100 0.0 103478
09:00+9ссз2359100 0.0 1035246
12:00+12ссз235399 0.0 1035807
15:00+11ссз335999 0.0 1034369
18:00+9з226980 0.0 103419
21:00+10сз2369100 0.0 103458
2 октября, сб
сб200:00+10ссз2273100 0.0 103448
03:00+10с1181100 0.0 103415
06:00+10ссз1184100 0.0 103311
09:00+12св1177100 0.0 1033138
12:00+14в235696 0.0 1033887
15:00+16ссв134998 0.0 10321441
18:00+13св2466100 0.0 103395
21:00+12в2271100 0.0 103347